Location: Alexandria
(38.8050°N, 77.0470°W)
Time: 16:00:05
(UTC-04:00)

Amateur Radio Satellites - All Passes

Search period start: 20 October 2017 15:30
Search period end: 21 October 2017 15:30
Location: Alexandria, 38.8050°N, 77.0470°W

Satellite Date Start Highest point End Downlink Frequencies (MHz)
Time Altitude Azimuth
ITUPSAT 1 20 Oct 15:33:08 15:36:27 18° 94° (E) 15:39:45 437.325
DX 1 20 Oct 15:37:30 15:41:16 29° 291° (WNW) 15:45:02 434.975-435.025
BEESAT 20 Oct 15:48:01 15:52:05 27° 96° (E) 15:56:06 436.000
ISS 20 Oct 15:51:36 15:53:59 18° 24° (NNE) 15:56:22 437.550
SO-50 20 Oct 15:58:16 16:02:48 53° 55° (NE) 16:07:22 436.795
UKube-1 20 Oct 16:01:35 16:05:07 25° 292° (WNW) 16:08:38 .
AO-7 20 Oct 16:03:33 16:11:49 71° 254° (WSW) 16:20:07 .
PCSat 20 Oct 16:13:32 16:15:03 11° 40° (NE) 16:16:33 145.827
MOZHAYETS 4 20 Oct 16:39:26 16:44:00 72° 284° (WNW) 16:48:32
ITAMSAT 1 20 Oct 16:44:23 16:49:05 35° 262° (W) 16:53:51 435.822/435.867
CUBESAT XI-V 20 Oct 16:51:08 16:55:13 31° 97° (E) 16:59:18 437.345
nSIGHT-1 20 Oct 16:54:21 16:57:32 62° 37° (NE) 17:00:43 .
ITUPSAT 1 20 Oct 17:09:55 17:14:26 43° 289° (WNW) 17:18:56 437.325
XW-2B 20 Oct 17:16:36 17:16:43 10° 65° (ENE) 17:16:49 145.730 - 145.750
CUTE-I 20 Oct 17:16:49 17:19:47 15° 61° (ENE) 17:22:45 437.470
BEESAT 20 Oct 17:25:39 17:29:47 30° 292° (WNW) 17:33:53 436.000
ISS 20 Oct 17:27:30 17:30:45 69° 221° (SW) 17:34:00 437.550
DOVE 4 20 Oct 17:28:01 17:32:10 75° 75° (ENE) 17:36:30 437.250
XW-2C 20 Oct 17:37:03 17:39:46 19° 69° (ENE) 17:42:28 145.795 - 145.815
SO-50 20 Oct 17:39:59 17:42:50 16° 251° (WSW) 17:45:41 436.795
HO-68 20 Oct 17:46:57 17:51:27 18° 56° (NE) 17:55:57 435.675
PCSat 20 Oct 17:54:08 17:59:32 64° 60° (ENE) 18:04:53 145.827
AO-7 20 Oct 18:03:41 18:05:52 11° 272° (W) 18:08:03 .
KKS-1 20 Oct 18:05:25 18:09:50 54° 101° (E) 18:14:13 437.445
KAITUO 1B 20 Oct 18:18:42 18:22:15 43° 74° (ENE) 18:25:49 145.475/437.950
XW-2F 20 Oct 18:20:37 18:24:21 62° 76° (ENE) 18:28:05 145.980 - 146.000
LilacSat-2 20 Oct 18:26:07 18:29:57 87° 77° (ENE) 18:33:47 437.200
CUBESAT XI-V 20 Oct 18:28:45 18:32:25 24° 292° (WNW) 18:36:04 437.345
CUTE 1.7 + AOD 2 20 Oct 18:29:39 18:32:29 18° 67° (ENE) 18:35:19 437.475
nSIGHT-1 20 Oct 18:32:08 18:33:26 12° 232° (SW) 18:34:43 .
NUDT-PHONESAT 20 Oct 18:32:26 18:36:06 65° 76° (ENE) 18:39:48 437.300
XW-2D 20 Oct 18:33:06 18:36:54 79° 256° (WSW) 18:40:42 145.860 - 145.880
SEEDS 20 Oct 18:37:26 18:39:20 13° 65° (ENE) 18:41:14 437.485
STARS 20 Oct 18:37:43 18:42:02 48° 100° (E) 18:46:18 437.465
XW-2B 20 Oct 18:46:40 18:50:23 54° 260° (W) 18:54:07 145.730 - 145.750
CUTE-I 20 Oct 18:53:55 18:59:12 69° 258° (WSW) 19:04:32 437.470
XW-2C 20 Oct 19:10:30 19:13:45 26° 264° (W) 19:17:00 145.795 - 145.815
STRAND 1 20 Oct 19:24:57 19:27:43 14° 91° (E) 19:30:28 437.568
AO-73 20 Oct 19:25:40 19:27:35 13° 64° (ENE) 19:29:30 145.935
CUBEBUG 2 20 Oct 19:30:18 19:34:48 51° 73° (ENE) 19:39:24 437.445
HO-68 20 Oct 19:31:04 19:38:14 87° 253° (WSW) 19:45:29 435.675
PCSat 20 Oct 19:39:07 19:42:19 16° 256° (WSW) 19:45:31 145.827
KKS-1 20 Oct 19:43:33 19:45:54 14° 296° (WNW) 19:48:15 437.445
ZACube-1 20 Oct 19:45:56 19:49:32 23° 68° (ENE) 19:53:09 437.345
KAITUO 1B 20 Oct 19:55:31 19:56:26 11° 269° (W) 19:57:22 145.475/437.950
XW-2A 20 Oct 20:02:11 20:05:36 76° 76° (ENE) 20:09:00 145.665 - 145.685
CUTE 1.7 + AOD 2 20 Oct 20:04:07 20:08:02 36° 263° (W) 20:11:56 437.475
BEESAT 3 20 Oct 20:06:19 20:07:32 11° 42° (NE) 20:08:45 437.485
UWE-3 20 Oct 20:07:44 20:12:21 74° 76° (ENE) 20:17:03 435.000/436.395/437.385
O/OREOS (USA 219) 20 Oct 20:08:35 20:11:49 19° 101° (E) 20:15:06 437.305
SEEDS 20 Oct 20:10:30 20:14:33 50° 260° (W) 20:18:37 437.485
STARS 20 Oct 20:15:21 20:17:56 15° 296° (WNW) 20:20:32 437.465
Oscar 11 20 Oct 20:21:58 20:25:50 32° 71° (ENE) 20:29:42 .
AAUSAT CUBESAT 2 20 Oct 20:33:28 20:37:32 65° 260° (W) 20:41:37 437.432
YUBILEINY 20 Oct 20:36:49 20:45:20 50° 77° (ENE) 20:53:48 435.215
AO-73 20 Oct 20:58:42 21:03:13 65° 259° (W) 21:07:46 145.935
FO-29 20 Oct 21:01:52 21:07:54 29° 95° (E) 21:14:20 435.910
STRAND 1 20 Oct 21:02:11 21:07:17 62° 287° (WNW) 21:12:21 437.568
CUBEBUG 2 20 Oct 21:08:58 21:11:41 15° 269° (W) 21:14:26 437.445
Max Valier Satellite 20 Oct 21:15:19 21:17:47 17° 68° (ENE) 21:20:14 145.860
AO-85 20 Oct 21:20:41 21:23:45 17° 46° (NE) 21:26:56 145.980
ZACube-1 20 Oct 21:21:30 21:25:36 32° 263° (W) 21:29:44 437.345
HO-68 20 Oct 21:23:32 21:26:50 14° 271° (W) 21:30:11 435.675
BEESAT 2 20 Oct 21:26:12 21:29:22 21° 49° (NE) 21:32:28 435.950
BEESAT 3 20 Oct 21:41:40 21:45:37 80° 241° (WSW) 21:49:29 437.485
O/OREOS (USA 219) 20 Oct 21:46:42 21:50:56 37° 297° (WNW) 21:55:13 437.305
DELFI C3 20 Oct 21:58:15 22:02:09 87° 77° (ENE) 22:06:05 145.870
Oscar 11 20 Oct 21:58:46 22:01:59 20° 266° (W) 22:05:13 .
ESTCUBE 1 20 Oct 22:29:31 22:30:49 11° 63° (ENE) 22:32:08 437.505/2401.250
YUBILEINY 20 Oct 22:34:10 22:41:45 34° 275° (W) 22:49:21 435.215
EO-88 20 Oct 22:36:57 22:40:32 56° 260° (W) 22:44:08 145.990 - 145.960
UNISAT 6 20 Oct 22:42:49 22:47:18 51° 99° (E) 22:51:40 437.425
FO-29 20 Oct 22:46:18 22:53:01 54° 289° (WNW) 23:00:23 435.910
Max Valier Satellite 20 Oct 22:48:05 22:51:21 29° 263° (W) 22:54:38 145.860
RS-15 20 Oct 22:51:38 22:57:06 14° 95° (E) 23:02:35 29.354- 29.394
TIGRISAT 20 Oct 22:57:26 23:02:02 68° 101° (E) 23:06:30 435.000
AO-85 20 Oct 22:59:54 23:04:29 63° 242° (WSW) 23:09:24 145.980
BEESAT 2 20 Oct 23:03:30 23:07:09 33° 246° (WSW) 23:10:44 435.950
LO-87 20 Oct 23:25:04 23:28:36 63° 75° (ENE) 23:32:11 145.935 - 145.965
PRISM 20 Oct 23:40:15 23:44:24 86° 286° (WNW) 23:48:32 437.425
VELOX 1 20 Oct 23:52:18 23:54:44 15° 65° (ENE) 23:57:12 145.980
QB50P2 21 Oct 00:00:37 00:03:07 15° 92° (E) 00:05:36 145.880/145.840
ESTCUBE 1 21 Oct 00:02:32 00:07:00 70° 258° (WSW) 00:11:30 437.505/2401.250
NANOSAT C BR1 21 Oct 00:03:51 00:05:47 13° 91° (E) 00:07:43 145.865
DUCHIFAT 1 21 Oct 00:13:54 00:16:18 15° 92° (E) 00:18:41 145.980
UNISAT 6 21 Oct 00:20:51 00:23:32 15° 296° (WNW) 00:26:09 437.425
AIST 2D 21 Oct 00:30:09 00:33:38 78° 282° (WNW) 00:37:04 435.315
TIGRISAT 21 Oct 00:36:24 00:38:04 12° 298° (WNW) 00:39:44 435.000
SPROUT 21 Oct 00:37:37 00:41:52 67° 75° (ENE) 00:46:08 437.525
RS-15 21 Oct 00:55:07 01:07:14 70° 114° (ESE) 01:19:24 29.354- 29.394
DX 1 21 Oct 00:56:25 00:59:20 18° 66° (ENE) 01:02:16 434.975-435.025
EO-79 21 Oct 01:09:37 01:13:54 89° 108° (ESE) 01:18:08 145.935-145.965
POLYITAN 1 21 Oct 01:14:31 01:18:47 81° 286° (WNW) 01:23:00 437.675
UKube-1 21 Oct 01:19:06 01:22:13 20° 67° (ENE) 01:25:21 .
VELOX 1 21 Oct 01:26:31 01:30:45 49° 260° (W) 01:35:01 145.980
50 SAT 21 Oct 01:33:18 01:36:27 51° 75° (ENE) 01:39:39 437.505
QB50P2 21 Oct 01:35:03 01:39:04 41° 288° (WNW) 01:43:02 145.880/145.840
NANOSAT C BR1 21 Oct 01:37:38 01:41:44 48° 287° (WNW) 01:45:47 145.865
Gurwin Techsat 1B 21 Oct 01:43:08 01:45:47 14° 91° (E) 01:48:24 435.225
DUCHIFAT 1 21 Oct 01:48:08 01:52:09 42° 287° (WNW) 01:56:06 145.980
BUGSAT 1 21 Oct 01:53:31 01:57:39 51° 100° (E) 02:01:42 437.445
DX 1 21 Oct 02:31:11 02:35:12 38° 262° (W) 02:39:15 434.975-435.025
ITUPSAT 1 21 Oct 02:38:42 02:42:10 20° 65° (ENE) 02:45:37 437.325
M-CUBED/EXP-1 PRIME 21 Oct 02:44:05 02:47:37 51° 106° (ESE) 02:51:25 437.505
Oscar 19 21 Oct 02:44:38 02:49:47 82° 104° (ESE) 02:54:54 437.125/150
BEESAT 21 Oct 02:53:06 02:57:09 28° 68° (ENE) 03:01:12 436.000
UKube-1 21 Oct 02:54:06 02:57:59 33° 262° (W) 03:01:54 .
NO-84 21 Oct 03:00:13 03:04:21 49° 131° (SE) 03:08:30 435.350 FM
RS-15 21 Oct 03:09:17 03:20:38 40° 318° (NW) 03:31:57 29.354- 29.394
Gurwin Techsat 1B 21 Oct 03:20:53 03:26:10 68° 287° (WNW) 03:31:26 435.225
BUGSAT 1 21 Oct 03:30:31 03:32:31 13° 296° (WNW) 03:34:29 437.445
MOZHAYETS 4 21 Oct 03:39:26 03:44:04 88° 247° (WSW) 03:48:45
CUBESAT XI-V 21 Oct 03:53:12 03:57:05 27° 69° (ENE) 04:00:57 437.345
AO-7 21 Oct 04:06:44 04:14:33 43° 100° (E) 04:22:19 .
ITUPSAT 1 21 Oct 04:15:06 04:19:39 42° 261° (W) 04:24:14 437.325
M-CUBED/EXP-1 PRIME 21 Oct 04:20:47 04:21:43 11° 298° (WNW) 04:22:38 437.505
Oscar 19 21 Oct 04:26:27 04:28:22 12° 300° (WNW) 04:30:18 437.125/150
BEESAT 21 Oct 04:30:41 04:34:49 29° 263° (W) 04:38:59 436.000
NO-84 21 Oct 04:38:17 04:41:58 27° 327° (NNW) 04:45:34 435.350 FM
ITAMSAT 1 21 Oct 04:57:49 05:03:05 89° 104° (ESE) 05:08:19 435.822/435.867
KKS-1 21 Oct 05:02:00 05:06:10 42° 72° (ENE) 05:10:22 437.445
DOVE 4 21 Oct 05:27:33 05:31:44 25° 95° (E) 05:36:01 437.250
RS-15 21 Oct 05:29:51 05:38:00 19° 351° (N) 05:46:00 29.354- 29.394
CUBESAT XI-V 21 Oct 05:30:24 05:34:21 27° 264° (W) 05:38:18 437.345
STARS 21 Oct 05:32:52 05:36:53 36° 71° (ENE) 05:40:56 437.465
AO-7 21 Oct 05:59:35 06:07:11 42° 298° (WNW) 06:14:48 .
XW-2D 21 Oct 06:08:56 06:10:02 11° 92° (E) 06:11:07 145.860 - 145.880
SO-50 21 Oct 06:12:11 06:15:37 22° 111° (ESE) 06:19:03 436.795
O/OREOS (USA 219) 21 Oct 06:18:41 06:22:47 31° 62° (ENE) 06:26:51 437.305
XW-2B 21 Oct 06:21:19 06:23:37 16° 93° (E) 06:25:54 145.730 - 145.750
STRAND 1 21 Oct 06:39:23 06:42:58 20° 64° (ENE) 06:46:34 437.568
ITAMSAT 1 21 Oct 06:40:05 06:41:44 11° 301° (WNW) 06:43:23 435.822/435.867
KKS-1 21 Oct 06:40:07 06:42:53 16° 267° (W) 06:45:41 437.445
XW-2C 21 Oct 06:43:44 06:47:05 30° 97° (E) 06:50:24 145.795 - 145.815
HO-68 21 Oct 07:01:45 07:06:36 19° 92° (E) 07:11:27 435.675
DOVE 4 21 Oct 07:04:49 07:09:24 36° 289° (WNW) 07:14:07 437.250
STARS 21 Oct 07:10:13 07:13:18 19° 266° (W) 07:16:25 437.465
CUTE-I 21 Oct 07:12:11 07:17:27 53° 101° (E) 07:22:41 437.470
KAITUO 1B 21 Oct 07:24:26 07:28:08 77° 102° (ESE) 07:31:48 145.475/437.950
CUBEBUG 2 21 Oct 07:24:41 07:26:25 12° 89° (E) 07:28:08 437.445
XW-2F 21 Oct 07:27:38 07:31:21 72° 285° (WNW) 07:35:02 145.980 - 146.000
LilacSat-2 21 Oct 07:34:39 07:38:18 49° 285° (WNW) 07:41:56 437.200
NUDT-PHONESAT 21 Oct 07:37:19 07:40:58 73° 284° (WNW) 07:44:36 437.300
XW-2D 21 Oct 07:40:51 07:44:24 42° 286° (WNW) 07:47:56 145.860 - 145.880
RS-15 21 Oct 07:46:56 07:56:35 26° 28° (NNE) 08:05:50 29.354- 29.394
CUTE 1.7 + AOD 2 21 Oct 07:49:49 07:53:45 39° 98° (E) 07:57:41 437.475
SO-50 21 Oct 07:51:40 07:55:50 37° 308° (NW) 08:00:01 436.795
XW-2B 21 Oct 07:54:32 07:57:50 30° 288° (WNW) 08:01:08 145.730 - 145.750
SEEDS 21 Oct 07:55:35 07:59:09 27° 96° (E) 08:02:42 437.485
O/OREOS (USA 219) 21 Oct 07:58:21 08:02:01 24° 258° (WSW) 08:05:39 437.305
UWE-3 21 Oct 08:00:03 08:02:53 16° 92° (E) 08:05:39 435.000/436.395/437.385
STRAND 1 21 Oct 08:16:47 08:21:44 49° 260° (W) 08:26:44 437.568
AAUSAT CUBESAT 2 21 Oct 08:17:16 08:20:22 20° 94° (E) 08:23:27 437.432
XW-2C 21 Oct 08:18:39 08:20:59 16° 292° (WNW) 08:23:20 145.795 - 145.815
JUGNU 21 Oct 08:32:09 08:33:41 11° 183° (S) 08:35:13 437.505
PCSat 21 Oct 08:34:06 08:39:30 78° 116° (ESE) 08:44:57 145.827
HO-68 21 Oct 08:47:44 08:54:56 74° 288° (WNW) 09:02:05 435.675
AO-73 21 Oct 08:48:33 08:52:09 25° 95° (E) 08:55:40 145.935
CUTE-I 21 Oct 08:53:17 08:57:03 20° 296° (WNW) 09:00:49 437.470
XW-2A 21 Oct 08:57:26 09:00:46 83° 283° (WNW) 09:04:05 145.665 - 145.685
FO-29 21 Oct 08:58:01 09:03:07 59° 73° (ENE) 09:08:37 435.910
CUBEBUG 2 21 Oct 08:58:52 09:03:26 60° 286° (WNW) 09:07:50 437.445
ZACube-1 21 Oct 09:10:41 09:14:57 53° 99° (E) 09:19:06 437.345
CUTE 1.7 + AOD 2 21 Oct 09:26:37 09:29:15 17° 293° (WNW) 09:31:55 437.475
nSIGHT-1 21 Oct 09:31:18 09:34:14 35° 135° (SE) 09:37:11 .
SEEDS 21 Oct 09:31:25 09:34:41 23° 291° (WNW) 09:37:57 437.485
UWE-3 21 Oct 09:35:18 09:39:31 41° 288° (WNW) 09:43:37 435.000/436.395/437.385
NO-84 21 Oct 09:35:24 09:38:27 21° 30° (NNE) 09:41:19 435.350 FM
YUBILEINY 21 Oct 09:35:48 09:44:15 60° 91° (E) 09:52:45 435.215
DELFI C3 21 Oct 09:38:11 09:39:38 12° 91° (E) 09:41:06 145.870
UNISAT 6 21 Oct 09:39:51 09:44:09 38° 71° (ENE) 09:48:29 437.425
Oscar 11 21 Oct 09:45:44 09:50:03 81° 104° (ESE) 09:54:20 .
AAUSAT CUBESAT 2 21 Oct 09:52:14 09:55:48 29° 289° (WNW) 09:59:22 437.432
TIGRISAT 21 Oct 09:54:09 09:58:38 50° 73° (ENE) 10:03:11 435.000
RS-15 21 Oct 09:59:41 10:11:39 73° 56° (NE) 10:22:54 29.354- 29.394
ISS 21 Oct 10:06:10 10:09:24 75° 139° (SE) 10:12:39 437.550
EO-88 21 Oct 10:08:14 10:09:50 12° 92° (E) 10:11:27 145.990 - 145.960
Max Valier Satellite 21 Oct 10:18:59 10:22:04 25° 96° (E) 10:25:06 145.860
PCSat 21 Oct 10:20:03 10:23:31 17° 315° (NW) 10:27:01 145.827
AO-73 21 Oct 10:24:44 10:28:17 25° 291° (WNW) 10:31:45 145.935
PRISM 21 Oct 10:27:50 10:31:46 53° 74° (ENE) 10:35:44 437.425
HO-68 21 Oct 10:38:07 10:41:25 14° 307° (NW) 10:44:44 435.675
FO-29 21 Oct 10:46:00 10:48:49 15° 271° (W) 10:51:44 435.910
ZACube-1 21 Oct 10:48:39 10:50:42 13° 296° (WNW) 10:52:45 437.345
QB50P2 21 Oct 10:53:45 10:54:35 10° 63° (ENE) 10:55:25 145.880/145.840
SRMSAT 21 Oct 10:56:47 10:58:39 11° 180° (S) 11:00:31 437.500
AIST 2D 21 Oct 11:03:04 11:06:04 27° 72° (ENE) 11:09:04 435.315
nSIGHT-1 21 Oct 11:07:50 11:10:33 25° 331° (NNW) 11:13:17 .
DELFI C3 21 Oct 11:10:48 11:14:37 46° 286° (WNW) 11:18:24 145.870
NO-84 21 Oct 11:12:27 11:16:05 50° 229° (SW) 11:19:24 435.350 FM
UNISAT 6 21 Oct 11:17:33 11:20:56 20° 267° (W) 11:24:23 437.425
BEESAT 3 21 Oct 11:30:16 11:33:22 22° 112° (ESE) 11:36:29 437.485
TIGRISAT 21 Oct 11:32:51 11:35:34 15° 269° (W) 11:38:19 435.000
YUBILEINY 21 Oct 11:34:20 11:41:32 28° 291° (WNW) 11:48:49 435.215
EO-88 21 Oct 11:40:17 11:43:37 35° 287° (WNW) 11:46:55 145.990 - 145.960
ISS 21 Oct 11:43:54 11:46:11 18° 337° (NNW) 11:48:29 437.550
Max Valier Satellite 21 Oct 11:53:06 11:55:41 18° 291° (WNW) 11:58:16 145.860
ESTCUBE 1 21 Oct 11:56:35 12:00:20 26° 96° (E) 12:04:05 437.505/2401.250
EO-79 21 Oct 12:00:12 12:04:21 53° 74° (ENE) 12:08:31 145.935-145.965
POLYITAN 1 21 Oct 12:05:10 12:09:22 61° 75° (ENE) 12:13:37 437.675
PRISM 21 Oct 12:06:29 12:07:21 11° 269° (W) 12:08:12 437.425
RS-15 21 Oct 12:13:28 12:22:55 30° 257° (WSW) 12:32:00 29.354- 29.394
Oscar 19 21 Oct 12:24:26 12:26:37 13° 61° (ENE) 12:28:46 437.125/150
QB50P2 21 Oct 12:25:31 12:29:45 69° 259° (W) 12:34:02 145.880/145.840
LO-87 21 Oct 12:26:09 12:29:48 84° 283° (WNW) 12:33:24 145.935 - 145.965
SPROUT 21 Oct 12:26:20 12:28:09 12° 91° (E) 12:29:57 437.525
NANOSAT C BR1 21 Oct 12:27:36 12:31:51 82° 259° (W) 12:36:08 145.865
AIST 2D 21 Oct 12:37:10 12:39:15 15° 267° (W) 12:41:21 435.315
DUCHIFAT 1 21 Oct 12:37:45 12:41:59 72° 259° (WSW) 12:46:14 145.980
BUGSAT 1 21 Oct 12:41:46 12:45:24 30° 70° (ENE) 12:49:07 437.445
BEESAT 2 21 Oct 12:52:31 12:56:23 52° 117° (ESE) 13:00:20 435.950
Gurwin Techsat 1B 21 Oct 13:02:31 13:06:24 21° 64° (ENE) 13:10:17 435.225
BEESAT 3 21 Oct 13:07:10 13:10:43 30° 308° (NW) 13:14:20 437.485
AO-85 21 Oct 13:13:32 13:17:19 55° 118° (ESE) 13:21:11 145.980
VELOX 1 21 Oct 13:17:38 13:21:39 32° 97° (E) 13:25:38 145.980
AO-7 21 Oct 13:19:14 13:21:12 11° 45° (NE) 13:23:10 .
M-CUBED/EXP-1 PRIME 21 Oct 13:29:09 13:32:25 48° 70° (ENE) 13:35:36 437.505
ESTCUBE 1 21 Oct 13:33:17 13:37:03 27° 291° (WNW) 13:40:48 437.505/2401.250
EO-79 21 Oct 13:38:47 13:40:24 12° 269° (W) 13:42:01 145.935-145.965
POLYITAN 1 21 Oct 13:44:49 13:45:31 10° 270° (W) 13:46:13 437.675
Oscar 19 21 Oct 14:00:03 14:05:13 79° 256° (WSW) 14:10:24 437.125/150
SPROUT 21 Oct 14:00:08 14:04:19 51° 286° (WNW) 14:08:28 437.525
BUGSAT 1 21 Oct 14:17:35 14:20:46 21° 266° (W) 14:23:58 437.445
DX 1 21 Oct 14:20:13 14:24:17 37° 98° (E) 14:28:21 434.975-435.025
nSIGHT-1 21 Oct 14:24:45 14:25:15 10° 12° (NNE) 14:25:44 .
50 SAT 21 Oct 14:25:17 14:28:32 55° 100° (E) 14:31:46 437.505
BEESAT 2 21 Oct 14:31:57 14:34:26 16° 315° (NW) 14:36:56 435.950
ITAMSAT 1 21 Oct 14:37:55 14:40:47 15° 61° (ENE) 14:43:38 435.822/435.867
Gurwin Techsat 1B 21 Oct 14:40:51 14:45:57 48° 260° (W) 14:51:06 435.225
UKube-1 21 Oct 14:41:47 14:45:52 40° 99° (E) 14:49:57 .
SO-50 21 Oct 14:44:07 14:47:13 18° 44° (NE) 14:50:21 436.795
VELOX 1 21 Oct 14:54:28 14:57:52 22° 293° (WNW) 15:01:16 145.980
AO-85 21 Oct 14:55:58 14:58:04 14° 316° (NW) 15:00:11 145.980
ISS 21 Oct 14:59:41 15:01:24 13° 18° (NNE) 15:03:08 437.550
AO-7 21 Oct 15:04:07 15:12:05 53° 65° (ENE) 15:20:02 .
